Regional Weather Roundup
Issued by NWS State College, PA

Home | Current Version | Previous Version | Text Only | Print | Product List | Glossary On
Versions: 1 2 3 4 5 6 7 8 9 10 11 12 13 14 15 16 17 18 19 20 21 22 23 24 25 26 27 28 29 30 31 32 33 34 35 36 37 38 39 40 41 42 43 44 45 46 47 48 49 50
558
ASUS41 KCTP 202303
RWRCTP

REGIONAL WEATHER ROUNDUP
NATIONAL WEATHER SERVICE STATE COLLEGE PA
700 PM EDT THU JUL 20 2017

Note: "fair" indicates few or no clouds below 12,000 feet with no
significant weather and/or obstructions to visibility.

* = STATION THAT DOES NOT REPORT PRECIPITATION /E.G. RAIN...SNOW...ETC/
    THUNDER OR FOG.

PAZ002>004-007>009-013>016-020>023-029>032-210000-
WESTERN PENNSYLVANIA

CITY           SKY/WX    TMP DP  RH WIND       PRES   REMARKS
ERIE           MOSUNNY   80  70  71 W12       29.94S
MEADVILLE      MOSUNNY   82  67  60 NW5       29.98S
FRANKLIN*      SUNNY     81  72  74 W8        29.99S
NEW CASTLE     FAIR      83  72  69 W6        29.98S
BEAVER COUNTY  LGT RAIN  77  72  83 W5        29.99R
BUTLER*        PTSUNNY   73  70  88 S7        30.00R
PITTSBURGH INT PTSUNNY   77  72  84 SW8       29.98F
PITTSBURGH     CLOUDY    75  69  81 W9        29.99S
INDIANA*       FOG       72  70  94 NE3G12    30.03R VSB 0
LATROBE        PTSUNNY   82  72  69 W17       29.99S
WASHINGTON CO* PTSUNNY   73  72  94 SW6       30.02F
$$

PAZ004>006-010>012-017>019-024>028-033>037-041-042-045-046-049>053-210000-
CENTRAL PENNSYLVANIA

CITY           SKY/WX    TMP DP  RH WIND       PRES   REMARKS
BRADFORD       SUNNY     83  65  54 W15       29.98S
DUBOIS         CLOUDY    76  69  79 SW10      29.99S
CLEARFIELD     CLOUDY    73  70  90 SW6       29.99S
JOHNSTOWN      CLOUDY    80  67  64 W9        30.03F
ALTOONA        PTSUNNY   82  70  66 SW5       29.99S
STATE COLLEGE  PTSUNNY   82  70  65 W10       29.95S
WILLIAMSPORT   PTSUNNY   80  69  69 CALM      29.90S
SELINSGROVE    SUNNY     87  71  58 VRB3      29.90R
FT INDIANTOWN  PTSUNNY   89  70  52 W9        29.90S
CAPITAL CITY   CLOUDY    90  66  45 W12       29.90S
HARRISBURG     PTSUNNY   89  71  55 W10       29.89S HX  95
YORK           SUNNY     88  73  61 W6        29.91S HX  95
$$

PAZ038>040-043-044-047-048-054-055-060>062-067>071-210000-
EASTERN PENNSYLVANIA

CITY           SKY/WX    TMP DP  RH WIND       PRES   REMARKS
SCRANTON       LGT RAIN  73  71  93 CALM      29.95S
MOUNT POCONO   LGT RAIN  67  66  97 N5        30.00F
ALLENTOWN      MOSUNNY   90  70  51 W14       29.91R HX  95
QUAKERTOWN*    CLEAR     88  73  62 SW5       29.92R HX  96
READING        SUNNY     90  73  57 W8        29.88S HX  98
LANCASTER      SUNNY     92  70  48 W12       29.89S HX  97
COATESVILLE    CLEAR     86  73  66 CALM      29.93S
POTTSTOWN      SUNNY     88  71  57 W5        29.91S
BLUE BELL      SUNNY     88  70  55 W7        29.90S
DOYLESTOWN     MOSUNNY   89  70  53 SW7       29.89R
WILLOW GROVE   NOT AVBL
NORTH PHILA    MOSUNNY   92  70  48 W10       29.89S HX  97
PHILADELPHIA   MOSUNNY   94  69  44 SW13      29.87F HX  99
$$




USA.gov is the U.S. government's official web portal to all federal, state and local government web resources and services.